GEFSMW_con_maxscp_264.txt.gz
SCP
2 2 2 2 3 4 5 6 7 8 7 6 5 5 5 5 5 5 5 5 5 5 4 4 4 5 5 5 5 6 6 6 5 4 3 2 1 2 1 1 1 1 1
2 2 2 2 3 4 5 6 8 9 8 7 6 5 5 5 5 5 5 5 6 5 4 4 4 4 4 4 5 7 7 6 5 3 2 1 1 1 1 1 1 1 1
2 2 2 2 3 4 5 6 8 9 9 7 6 5 5 5 5 6 6 6 6 5 4 4 3 4 4 4 6 7 6 5 4 2 1 1 1 1 1 2 2 2 2
2 2 3 3 3 4 4 6 8 9 9 7 5 5 5 4 4 6 6 6 6 5 4 3 3 3 3 4 6 6 5 4 2 1 1 1 1 1 1 1 2 2 2
3 3 3 4 4 4 4 6 8 10 9 7 5 4 4 3 3 5 6 7 5 4 3 3 4 3 4 5 5 5 4 3 2 1 1 1 1 1 1 1 1 2 2
3 4 5 6 6 5 5 6 9 12 10 8 5 4 4 3 3 5 6 6 5 4 4 5 5 4 4 5 5 4 3 3 2 2 1 1 1 1 1 1 1 1 1
4 6 8 8 7 5 5 8 11 13 12 9 6 5 4 4 4 4 5 4 5 5 6 6 6 6 6 6 5 5 4 4 3 2 2 1 1 1 1 1 0 1 1
6 7 8 8 7 7 7 8 11 12 12 10 7 5 5 4 4 4 5 5 6 7 7 7 8 8 7 7 6 6 5 5 4 3 2 2 1 1 1 1 1 1 1
8 8 8 8 8 8 8 8 10 11 11 9 7 6 5 4 4 5 6 7 8 7 6 6 7 8 8 7 6 6 6 5 4 4 3 2 2 2 1 1 1 1 1
8 8 8 7 7 8 8 8 10 11 10 8 7 7 6 5 6 7 9 10 9 7 5 4 5 6 7 7 6 6 6 5 5 4 4 3 2 2 1 1 1 1 1
9 9 7 6 5 6 7 8 9 10 9 8 7 7 7 6 7 8 9 11 11 8 5 4 4 5 5 6 6 5 5 5 5 5 4 4 3 3 2 2 2 2 2
11 10 8 6 4 5 6 7 8 9 9 7 7 7 7 7 7 8 9 11 13 10 6 4 4 4 5 5 5 5 5 5 5 5 5 4 4 4 3 3 3 2 2
13 12 9 7 6 6 7 7 7 8 7 7 6 6 6 6 7 8 10 14 14 11 6 4 4 4 4 4 4 4 4 4 5 5 5 5 4 4 5 5 4 3 3
12 11 10 9 8 8 8 8 8 8 7 6 6 6 6 6 7 8 11 15 15 10 5 4 3 3 3 3 3 3 3 4 4 4 5 4 4 5 5 5 5 4 3
10 10 9 9 9 8 8 9 8 7 6 6 6 6 6 6 7 8 11 14 12 8 5 4 3 3 3 2 2 2 2 3 4 4 4 4 4 4 4 5 5 4 4
9 10 9 9 9 8 8 9 8 7 5 5 5 6 6 6 7 8 10 10 9 7 5 4 4 3 2 2 1 1 1 2 3 3 4 4 4 3 3 3 3 3 3
10 11 11 10 9 9 10 10 9 7 6 6 6 6 6 6 6 7 8 8 8 8 7 5 4 4 3 2 1 1 1 2 2 2 3 3 3 3 3 2 2 2 2
13 13 13 11 10 10 10 10 9 8 8 8 8 7 7 6 7 7 7 8 8 8 7 6 5 5 4 3 2 1 1 2 2 2 2 3 3 3 3 3 2 1 1
15 15 14 12 11 10 10 9 8 7 7 7 7 7 7 8 8 8 7 7 8 7 6 6 5 5 4 3 2 2 2 2 2 2 2 2 3 3 3 3 2 1 1
16 16 15 13 11 10 9 8 7 7 7 7 7 7 8 9 8 8 7 7 7 7 6 5 5 5 5 4 3 2 2 3 2 2 2 2 2 2 2 2 2 1 1
16 16 17 15 13 12 9 8 8 9 10 10 9 8 9 9 9 9 8 9 9 8 7 6 6 5 5 4 3 2 2 3 3 2 2 2 2 1 1 1 1 1 1
15 15 16 17 17 16 13 11 11 11 11 10 9 8 9 9 9 9 10 10 10 10 9 8 7 7 5 4 2 2 2 2 3 3 3 3 2 1 1 1 1 1 1
13 12 13 15 15 16 16 15 14 13 12 10 8 8 8 8 9 10 10 11 12 12 11 10 9 7 5 4 3 2 1 1 2 2 2 2 2 1 1 1 1 1 1
10 11 12 14 13 13 14 14 14 13 13 12 10 8 8 8 10 10 10 11 13 14 14 13 10 7 6 5 4 2 1 1 1 1 1 1 1 1 1 1 1 2 2
9 9 10 12 14 14 13 13 12 12 12 13 11 10 9 9 10 11 11 11 12 13 14 13 9 6 5 5 4 2 1 1 0 1 1 1 1 1 1 2 2 2 3
8 8 8 9 12 17 15 13 11 10 10 11 12 11 10 9 10 11 11 11 11 11 11 10 7 5 5 4 3 2 1 1 0 1 1 1 1 1 1 1 2 3 3

GEFSMW_con_maxscp_270.txt.gz
SCP
2 2 2 2 2 2 2 3 3 2 2 2 2 2 2 2 2 1 1 2 2 2 2 2 2 2 2 2 2 2 2 2 2 1 1 0 0 0 0 0 0 0 0
2 2 2 2 2 2 3 3 3 2 2 3 3 2 2 2 2 1 1 2 2 2 2 2 3 2 2 2 2 2 2 2 2 1 0 0 0 0 0 0 0 0 0
2 2 2 3 3 3 3 3 3 2 2 3 3 3 2 2 2 1 1 2 2 2 2 3 3 3 2 2 2 2 2 2 1 1 0 0 0 0 0 0 0 0 0
2 2 2 2 2 3 3 3 3 3 3 3 3 3 3 2 2 2 2 2 2 2 2 3 3 3 2 2 2 2 2 1 1 0 0 0 0 0 0 0 0 0 0
2 2 2 2 3 3 3 3 3 3 3 3 4 4 3 3 2 2 2 2 2 2 2 3 3 3 2 2 2 2 2 1 1 0 0 0 0 0 0 0 0 0 0
2 2 2 3 4 4 4 4 4 4 4 4 4 4 4 3 2 2 2 2 2 2 2 3 3 3 3 3 2 2 2 2 1 1 0 0 0 0 0 0 0 0 0
2 3 3 5 6 6 5 5 5 5 5 5 4 4 4 4 3 2 2 2 2 2 3 3 3 3 3 3 3 3 3 3 2 2 1 1 0 0 0 0 0 0 0
4 4 5 7 9 9 8 7 7 6 5 5 4 4 4 5 4 3 2 2 2 3 3 4 3 3 4 4 4 3 3 3 3 2 2 1 1 1 1 0 0 0 0
8 8 8 9 10 10 9 8 7 6 5 4 3 3 4 5 4 4 3 3 3 4 4 3 3 3 3 4 4 4 4 4 4 3 2 2 1 1 1 1 1 0 0
12 13 12 12 12 11 9 7 6 5 4 3 4 3 4 4 4 5 5 4 4 4 3 3 3 3 3 4 4 4 4 4 4 3 2 2 2 2 2 1 1 1 1
15 16 15 14 12 10 8 6 5 4 4 4 4 4 4 4 4 5 5 5 5 4 3 3 3 3 3 3 4 4 4 4 3 3 2 2 2 2 2 2 1 1 1
16 16 15 13 11 9 7 6 5 4 5 6 6 5 5 5 5 5 5 5 5 4 3 3 3 4 3 3 2 2 2 3 3 2 2 2 2 2 2 2 2 2 2
14 14 13 12 10 8 7 6 5 5 6 6 7 6 5 5 5 5 4 5 5 4 3 3 3 4 3 2 2 2 2 2 2 2 2 2 2 2 3 3 3 3 3
11 11 11 10 9 8 7 6 6 6 6 7 7 6 5 5 4 4 4 4 5 4 3 3 4 4 3 3 2 2 2 2 2 2 1 1 1 2 2 2 2 3 3
10 11 12 11 9 8 7 7 7 7 7 6 6 6 5 5 4 4 4 5 5 5 4 5 5 4 4 3 3 2 2 2 2 1 1 1 1 1 1 2 2 2 2
12 13 14 12 10 9 8 8 8 8 7 7 5 5 5 5 4 4 4 5 5 5 5 5 6 5 4 3 3 3 2 2 2 1 1 1 1 1 1 1 1 1 2
14 14 14 12 10 10 9 9 9 10 10 8 6 5 5 4 5 5 5 5 5 4 4 5 5 6 5 3 2 2 3 2 2 1 1 1 1 1 1 1 1 1 1
16 16 15 12 10 9 9 10 11 12 12 10 7 6 5 4 5 5 5 4 4 3 3 3 4 5 4 2 1 2 2 3 2 2 1 1 1 1 1 1 1 0 0
20 19 16 13 10 10 10 10 11 11 10 9 7 6 5 4 5 5 5 4 3 2 2 2 2 3 2 1 1 1 2 2 2 2 2 1 1 1 1 1 1 0 0
21 19 15 13 12 11 10 9 9 8 7 7 7 6 6 5 5 5 4 3 2 2 1 1 1 2 2 1 0 0 1 2 2 2 2 2 1 1 1 1 1 1 1
18 17 15 14 13 11 10 8 7 6 6 6 7 7 7 6 5 4 4 3 2 1 1 1 1 1 1 1 1 0 1 1 2 2 2 2 1 1 1 1 1 1 1
15 15 15 14 13 11 9 9 8 7 7 7 7 7 7 6 4 3 3 2 2 2 1 1 1 1 1 1 1 1 1 1 2 3 3 2 1 1 0 0 1 1 1
12 13 13 12 11 9 9 9 9 9 9 10 9 8 7 5 4 3 3 2 2 2 2 1 1 1 1 2 2 2 1 1 2 2 2 1 1 0 0 0 0 0 0
9 10 10 9 8 7 7 7 7 8 10 12 11 10 8 6 4 4 4 4 4 4 3 3 2 2 2 2 3 4 3 2 2 2 1 1 0 0 0 0 0 1 1
7 7 7 6 6 5 5 4 4 5 8 12 14 13 11 9 6 5 4 4 4 4 3 3 3 2 2 3 5 6 7 6 4 2 1 1 1 0 0 0 0 1 1
6 6 5 5 5 4 4 3 3 3 6 11 15 15 14 12 8 5 4 4 3 2 2 2 2 3 3 3 5 8 9 8 5 3 1 1 1 1 0 0 0 0 0

GEFSMW_con_maxscp_276.txt.gz
SCP
1 2 2 2 1 1 1 1 1 1 1 1 1 1 1 1 1 1 1 1 1 2 2 1 1 1 1 2 2 2 2 1 1 1 1 0 0 0 0 0 0 0 0
1 2 2 2 1 1 1 1 1 1 1 1 1 1 1 1 1 1 1 1 1 1 2 2 1 1 2 2 2 2 2 1 1 1 1 0 0 0 0 0 0 0 0
1 2 2 2 2 2 2 1 1 1 1 1 1 1 1 1 1 1 1 1 1 2 2 2 2 1 2 2 2 2 2 2 1 1 0 0 0 0 0 0 0 0 0
2 2 3 3 3 3 2 2 1 1 1 2 2 2 2 2 1 1 1 1 1 1 2 2 2 2 2 2 2 2 2 1 1 1 0 0 0 0 0 0 0 0 0
2 2 2 3 3 3 3 2 1 1 1 2 2 3 2 2 2 1 1 1 1 2 2 2 2 2 2 2 2 2 1 1 1 0 0 0 0 0 0 0 0 0 0
2 2 2 3 3 3 2 1 1 1 1 2 2 2 2 2 2 2 2 2 2 2 2 2 2 2 2 2 2 1 1 1 1 1 0 0 0 0 0 0 0 0 0
2 2 2 2 3 2 2 1 1 1 2 2 2 2 2 3 3 2 2 2 2 3 3 2 2 2 2 2 2 2 2 1 1 1 1 1 0 0 0 0 0 0 0
2 2 2 2 2 2 1 1 1 1 2 2 2 2 2 2 3 2 2 2 3 3 3 2 2 2 2 2 2 2 2 2 2 1 1 1 1 1 1 1 0 0 0
2 2 2 2 2 2 1 1 1 1 2 2 2 2 2 2 2 2 3 3 3 4 3 3 2 2 2 2 2 2 2 2 2 2 2 2 2 1 1 1 1 1 1
2 2 2 3 3 3 3 2 2 2 2 2 2 2 2 2 2 3 4 4 4 4 3 3 2 2 2 2 2 2 2 2 2 2 2 3 3 2 2 2 2 2 2
2 2 2 3 4 4 4 4 3 3 2 2 2 2 2 3 3 4 5 5 5 4 3 3 3 2 2 2 2 2 2 2 2 2 2 2 3 3 3 2 2 3 3
3 3 3 3 3 4 4 4 3 3 2 2 2 3 3 4 5 6 6 5 4 4 4 3 3 3 3 2 2 2 2 2 2 2 2 2 2 2 3 2 2 3 3
4 4 3 3 3 3 3 3 3 3 3 3 3 3 4 5 5 6 5 4 3 3 4 4 4 3 3 3 3 3 3 3 2 2 2 2 1 2 2 2 2 2 3
5 5 4 3 3 3 3 3 3 3 4 4 4 4 4 5 5 5 5 4 4 3 4 4 4 4 4 4 3 3 3 3 3 2 2 2 1 1 1 1 1 2 2
5 5 4 4 4 4 4 4 5 6 6 6 5 4 4 4 5 5 4 4 4 3 3 3 4 4 4 4 3 3 3 4 3 3 2 2 2 1 1 1 1 1 1
5 5 4 4 4 4 4 5 6 8 9 8 6 4 4 4 4 3 3 3 3 3 3 3 3 3 3 2 2 2 3 3 3 3 3 3 2 2 1 1 1 1 1
6 5 5 4 4 4 4 4 6 8 10 9 7 5 4 4 3 2 2 2 2 3 2 2 2 2 2 1 1 1 2 3 3 3 3 3 3 3 2 2 1 1 1
7 6 5 5 5 5 4 3 3 5 7 7 6 5 4 4 3 2 2 2 2 2 2 1 1 1 1 0 0 0 1 2 3 3 3 3 3 3 3 2 2 2 2
6 5 5 5 6 6 4 3 3 3 4 5 5 4 4 3 3 3 3 2 2 2 2 1 1 1 0 0 0 0 0 1 2 2 2 2 2 2 2 2 3 3 3
5 5 4 4 5 5 4 3 3 2 3 3 4 4 3 3 4 4 4 3 3 2 2 1 0 0 0 0 0 0 0 1 1 2 2 1 1 1 1 2 2 2 2
5 4 3 3 3 3 3 2 2 2 3 3 4 4 4 4 4 4 4 4 3 3 2 1 0 0 0 0 0 0 0 1 1 2 2 1 1 1 0 1 2 2 2
5 4 3 3 2 2 2 2 2 2 3 3 4 4 5 4 4 3 3 3 3 3 2 1 0 0 0 0 1 0 0 1 2 2 2 2 1 1 0 0 1 1 1
4 4 4 4 3 2 2 2 2 3 3 3 3 5 6 6 5 4 3 3 2 2 2 1 1 1 1 1 1 1 1 1 1 2 2 1 1 1 0 0 0 1 1
5 5 5 5 4 4 3 3 3 4 3 2 3 3 5 6 5 5 4 3 2 2 2 2 2 2 2 2 2 2 1 1 1 1 2 2 2 1 1 1 1 1 1
6 6 5 5 5 4 4 4 4 4 3 2 2 2 3 4 4 4 4 3 2 2 2 2 2 2 2 2 2 2 2 1 1 1 2 3 3 4 4 3 2 1 1
6 6 5 4 4 4 4 4 4 3 3 2 2 2 2 2 2 4 4 3 2 1 1 1 1 1 1 1 1 1 1 1 1 1 3 4 5 6 6 5 3 1 1

GEFSMW_con_maxscp_282.txt.gz
SCP
1 1 2 2 1 1 2 3 4 4 3 2 2 2 2 1 1 1 1 2 2 3 3 3 4 5 5 5 5 4 4 3 3 3 3 2 2 1 1 0 0 0 0
1 1 1 2 1 1 2 3 4 4 3 3 3 3 2 1 1 1 1 2 2 3 3 3 4 4 5 5 5 4 3 3 3 3 2 2 1 1 1 0 0 0 0
1 1 1 1 1 1 2 2 3 4 4 4 4 3 3 2 1 1 2 2 3 2 2 3 3 4 4 4 4 3 3 2 3 3 2 2 1 1 1 0 0 0 0
1 1 1 1 1 1 2 2 3 3 4 4 4 4 3 2 2 2 2 2 2 2 2 3 3 3 4 4 3 3 2 2 2 2 2 1 1 1 1 1 1 0 0
1 1 1 2 2 2 2 2 2 3 3 4 4 4 3 3 2 2 2 2 2 2 2 3 3 4 4 4 3 3 2 2 2 2 2 1 1 1 1 1 1 1 1
1 1 2 3 3 3 2 2 2 2 2 3 3 3 3 2 2 2 2 2 2 2 2 3 4 5 5 4 3 3 3 2 2 2 2 2 2 2 2 1 1 1 1
1 2 3 4 3 3 2 2 2 2 2 2 2 2 2 2 2 2 2 2 1 2 3 4 5 6 5 4 4 4 3 3 3 3 2 2 2 2 2 2 1 1 1
1 2 3 4 3 3 3 3 3 3 3 3 3 3 2 2 2 2 2 2 2 2 4 5 6 6 5 5 4 4 4 4 3 3 3 3 2 3 3 2 1 1 1
2 3 3 3 3 3 3 4 4 4 4 4 3 3 3 2 2 2 2 2 3 4 5 7 7 6 5 5 5 5 5 5 4 4 3 3 2 2 3 2 2 1 1
3 3 3 3 3 3 4 4 4 5 5 4 4 4 3 2 2 2 3 3 3 5 7 7 7 6 5 5 6 6 6 6 5 5 4 3 3 3 3 3 2 2 2
4 4 4 3 3 3 4 4 4 4 5 6 7 6 5 3 2 2 2 3 4 6 7 8 8 6 5 5 5 5 5 5 6 6 5 4 4 3 3 3 3 2 2
4 4 4 4 4 4 4 4 4 6 7 9 9 8 6 4 2 2 3 4 5 7 8 9 8 6 5 5 5 5 5 5 5 5 5 5 4 4 3 3 3 2 2
4 4 5 5 5 4 4 4 5 7 8 7 7 6 4 3 3 3 4 5 6 8 10 10 9 6 5 4 4 4 4 4 4 4 4 4 4 4 4 3 3 3 3
4 4 5 6 6 5 4 4 5 6 6 4 3 3 3 3 3 4 5 6 7 9 10 9 7 5 5 5 5 5 5 4 4 4 4 3 3 3 4 3 3 3 3
3 4 5 6 6 5 5 4 5 5 5 4 3 3 3 4 4 4 5 6 7 8 7 6 5 5 6 6 7 7 6 5 4 3 3 3 3 3 3 3 3 3 3
4 4 4 5 6 6 5 5 6 5 5 4 3 3 4 5 5 5 5 6 6 6 5 5 5 6 7 8 8 9 9 7 5 4 3 2 2 2 2 2 2 2 2
5 5 5 6 6 7 6 6 6 5 5 4 4 4 4 5 5 5 5 5 6 6 6 5 5 7 8 7 6 7 9 8 5 3 2 2 1 1 2 1 1 1 1
6 6 7 8 8 8 7 7 6 5 5 5 4 4 4 4 4 4 4 5 6 6 6 6 6 7 7 4 2 3 6 6 4 2 2 1 1 1 2 2 2 2 2
6 7 9 11 12 11 9 8 6 6 5 5 5 4 4 4 4 3 3 4 5 5 6 6 6 6 5 2 0 1 3 4 2 2 1 1 1 1 1 2 2 2 2
6 8 11 14 15 13 10 9 7 6 6 5 4 4 5 5 5 4 3 4 4 4 5 5 4 4 3 1 0 1 2 2 2 2 2 2 2 1 1 1 2 2 3
6 8 11 15 15 13 10 9 7 7 6 5 4 4 5 5 5 4 4 4 4 4 4 4 3 3 2 1 0 1 1 2 2 3 3 3 2 1 1 1 2 2 2
6 8 12 14 13 11 9 8 7 6 6 6 5 5 5 6 6 5 5 5 4 3 4 4 3 3 2 1 1 1 1 1 2 4 4 3 2 1 0 0 1 1 1
6 8 11 13 12 9 8 7 7 6 6 7 7 7 7 7 7 6 6 5 4 4 3 4 3 3 2 1 1 1 1 1 3 4 4 2 1 0 0 0 0 1 1
6 7 10 11 11 9 8 7 7 7 7 8 9 10 10 10 10 8 7 6 5 4 3 3 3 3 2 2 2 2 3 3 4 4 4 2 1 1 1 1 2 2 3
5 6 8 10 10 10 9 8 7 7 8 9 10 11 11 11 10 10 8 7 5 3 3 3 3 2 2 1 1 2 4 4 4 4 4 3 3 3 3 3 3 4 4
5 6 7 9 11 12 10 8 8 8 9 9 10 11 10 9 9 9 9 7 4 3 2 2 2 2 2 1 1 1 2 2 2 3 3 4 3 3 3 3 3 4 4